STARLINK-30442, 57868

Orbit data source: Space-Track

STARLINK-30442, 57868 is a payload satellite owned by SpaceX/Seattle (US) in LEO that was launched on Sat, 16 Sep 2023 UTC via an FALCON 9 launch vehicle from the Air Force Eastern Test Range (AFETR). Payload-class satellites include a variety of spacecraft equipped with specific instruments for various scientific and technological missions. These include communications satellites like Starlink; space stations such as the ISS; scientific satellites like the Hubble; Earth observation satellites from companies like Planet Labs, Umbra, and HawkEye 360; GPS; miniature CubeSats for education and research; and military/defense satellites.

Loading next visibility...
Identifier
57868, 2023-144E
Orbit
LEO
Country
Flag of USUS
Related business
Manufacturer
SpaceX/Seattle
Mission
Operational Commercial Communications
Bus & Motor
STARLINK V2M, Unknown motor
Mass
730 kg wet, ~700 kg dry
Launch date (UTC)
2023-09-16 (2 years ago)
Launch vehicle
FALCON 9
Launch site
Air Force Eastern Test Range (AFETR)
Object type
Payload
Rocket body
Debris
Shape & HBR
Box + 2 Pan, 17.7 m
Radar Cross Section
33.884 m², Large (>1 m²)

Expand to show TLE details & history
Last TLE update: 1 day ago

TLE from 1 day ago
0 STARLINK-30442
1 57868U 23144E   25348.17584757  .00000268  00000-0  34894-4 0  9992
2 57868  43.0026  32.3947 0000406 336.4646  23.6177 15.02547832124708
Epoch: 2025-12-14T04:13Z
TLE epoch observation values (Epoch: 2025-12-14T04:13:13.230Z)
Latitude
-0.00005°
Longitude
-114.00301°
Altitude
558.563 km
Speed
7.584 km/s
True Right ascension
02h 09m 34s
True Declination
0° 00' 00"
Sunlit
Object was in full shadow at epoch
Visualization orbit readout
Latitude
Unknown
Longitude
Unknown
Altitude
Unknown
Speed
Unknown
Apparent Right ascension
Unknown
Apparent Declination
Unknown
Sunlit
N/A
Visualization observer readout
Local Sidereal Time
13:23:49
Azimuth
Unknown
Elevation
Unknown
Doppler factor
Unknown
Orbital elements
Apogee altitude
561.248 km
Perigee altitude
560.685 km
Semi-major axis
6,939.104 km
Eccentricity
0.00004
Inclination
43.0026°
RAAN
32.3947°
Arg. of periapsis
336.4646°
True anomaly
23.61956°
Mean anomaly
23.6177°
Eccentric anomaly
23.61863°
Mean motion
3.75481 °/min
Orbital period
95.88 mins
BSTAR
0.000034894
Loading maneuver chart data...
Computing Atmospheric mass density...
Loading historical data...
Loading historical data...
Loading historical data...
Loading historical data...
Loading historical data...
Loading historical data...
Loading historical data...

Documentation

Showing up to 5 results
|